Location: Rometta
(44.2000°N, 10.0500°E)
Time: 22:00:18
(UTC+00:00)

IRS-1C Rocket - Pass Details

Date: 20 January 2021
Orbit: 801 x 805 km, 99.0° (Epoch: 03 March)

Event Time Altitude Azimuth Distance (km) Brightness Sun altitude
Rises 17:47:02 0° 167° (SSE) 3,297 7.3 -16.6°
Reaches altitude 10° 17:49:21 10° 169° (SSE) 2,371 6.5 -17.0°
Maximum altitude 17:54:36 79° 256° (WSW) 820 4.2 -17.9°
Drops below altitude 10° 17:59:53 10° 343° (NNW) 2,387 6.6 -18.8°
Sets 18:02:14 0° 345° (NNW) 3,322 7.4 -19.2°
